Regional Weather Roundup
Issued by NWS

Home | Current Version | Previous Version | Text Only | Print | Product List | Glossary Off
Versions: 1 2 3 4 5 6 7 8 9 10 11 12 13 14 15 16 17 18 19 20 21 22 23 24 25 26 27 28 29 30 31 32 33 34 35 36 37 38 39 40 41 42 43 44 45 46 47 48 49 50

000
ASUS45 KBOI 281210
RWRID

IDAHO REGIONAL WEATHER ROUNDUP
NATIONAL WEATHER SERVICE BOISE ID
600 AM MDT WED JUN 28 2017

NOTE: "FAIR" INDICATES FEW OR NO CLOUDS BELOW 12000 FEET
WITH NO SIGNIFICANT WEATHER AND/OR OBSTRUCTIONS TO VISIBILITY

IDZ012-014-281300-
SOUTHWEST IDAHO


CITY           SKY/WX    TMP DP  RH WIND       PRES   REMARKS
BOISE          PTCLDY    64  48  56 SW7       29.84R
CALDWELL       PTCLDY    61  45  55 SW7       29.84R
MOUNTAIN HOME  PTCLDY    61  49  65 CALM      29.85R
$$

IDZ016-017-281300-
SOUTHCENTRAL IDAHO


CITY           SKY/WX    TMP DP  RH WIND       PRES   REMARKS
BURLEY         CLEAR     61  46  57 S14       29.87F
JEROME         PTCLDY    58  48  69 E12       29.87S
TWIN FALLS     CLEAR     57  46  66 S9        29.87S
$$

IDZ019>023-281300-
SOUTHEAST IDAHO


CITY           SKY/WX    TMP DP  RH WIND       PRES   REMARKS
IDAHO FALLS    CLOUDY    55  51  86 S3        29.94F
POCATELLO      PTCLDY    61  47  59 E12       29.89F
REXBURG        CLOUDY    53  48  83 S6        29.94F
$$

IDZ006-010-011-018-031-032-281300-
CENTRAL IDAHO MOUNTAINS


CITY           SKY/WX    TMP DP  RH WIND       PRES   REMARKS
MCCALL         PTCLDY    51  46  83 CALM      29.91S
HAILEY         PTCLDY    50  37  62 NW7       29.98R
STANLEY          N/A     46  45  96 N5        30.06R
SALMON         CLOUDY    48  46  93 NE3       29.91S
CHALLIS        MOCLDY    56  45  66 SE9G21    29.96F
$$

IDZ002-004-006-007-026-281300-
NORTHERN IDAHO


CITY           SKY/WX    TMP DP  RH WIND       PRES   REMARKS
LEWISTON       CLEAR     56  45  66 CALM      29.82R
LOWELL           N/A     54  49  83 NW3       29.86R
COEUR D`ALENE  MOCLDY    57  49  74 S8        29.82R
MULLAN PASS    CLEAR     48  33  56 NW5       29.94R
$$



USA.gov is the U.S. government's official web portal to all federal, state and local government web resources and services.